Wind_Speed
10 9 9 8 8 8 5 3 2 5 7 9 11 10 7 3 1 3 4 5 6 6 6 7 7 7 8 8 8 9 9 10 10 10 11 11 12 14 15 14 14 14 13 13 13 12 9 7 14 19 18 18 20 20 20 20 20 22 23 24 25 26 28
10 8 8 8 8 7 5 3 4 5 7 9 10 7 4 2 3 4 5 6 6 6 7 7 7 8 8 8 8 9 9 9 10 10 11 13 14 15 15 14 14 13 12 14 14 16 16 13 15 20 21 21 21 21 21 20 20 21 23 23 25 26 27
10 9 9 8 8 6 4 3 4 5 8 10 8 4 3 2 4 5 5 6 6 6 7 8 8 9 8 8 8 9 9 9 10 11 12 14 14 13 13 12 13 13 13 15 17 18 19 18 18 20 21 21 20 20 21 20 21 23 25 25 26 27 28
10 9 9 8 7 5 4 3 4 7 9 9 5 3 3 3 5 5 6 6 6 7 8 9 9 8 8 8 8 9 9 10 11 12 12 13 13 12 12 12 13 15 15 17 19 19 19 20 19 19 20 20 19 19 19 19 20 22 25 26 27 28 28
10 8 8 7 6 4 3 3 5 7 8 5 3 3 3 4 5 5 5 6 6 8 8 8 8 8 9 9 9 9 10 11 12 12 12 12 12 11 12 14 14 15 16 18 19 19 19 19 19 20 20 21 21 21 20 19 19 21 23 24 26 28 28
9 8 7 6 5 4 3 4 6 7 5 2 3 4 4 4 5 5 5 6 7 8 8 8 8 9 10 9 9 10 10 12 12 11 11 11 12 13 13 15 15 16 17 18 18 18 18 19 20 21 22 22 22 22 21 19 20 22 23 25 26 27 29
9 8 8 6 5 4 4 5 6 5 3 1 4 4 4 5 5 5 5 6 7 8 8 8 9 10 10 10 10 10 10 12 11 11 11 12 12 13 14 15 16 17 18 18 18 18 19 20 21 22 23 23 22 23 23 22 22 24 25 25 27 29 31
10 9 8 6 5 4 5 5 5 4 1 2 4 5 5 5 5 5 5 6 7 8 8 8 9 10 11 10 10 10 10 11 11 11 12 12 13 14 14 15 16 16 17 18 18 19 20 21 22 23 23 24 24 23 24 24 24 26 28 26 26 28 31
11 9 8 7 6 5 5 4 4 2 1 2 5 5 5 5 5 5 5 6 7 7 8 9 9 11 11 10 10 9 10 11 10 11 12 12 13 14 14 15 15 16 17 18 18 19 20 21 22 22 23 24 24 22 23 26 25 26 29 29 28 28 30
11 10 9 9 7 6 5 4 2 1 1 3 6 6 5 5 5 5 5 6 7 7 8 9 10 11 10 9 9 9 10 11 10 10 12 12 12 13 13 14 14 16 17 17 18 19 20 21 21 22 22 23 23 20 20 24 25 26 28 30 31 31 31
12 11 10 10 8 6 5 4 2 1 1 4 6 6 5 6 6 6 5 5 7 8 8 9 10 10 9 9 9 9 10 11 10 10 11 11 12 12 13 14 14 15 17 17 18 19 20 20 21 22 22 23 23 22 19 21 23 26 29 30 31 32 33
13 11 12 11 9 6 5 4 2 1 1 4 6 6 6 6 6 6 6 6 7 8 8 9 9 9 9 8 8 9 11 11 10 10 10 10 11 12 13 13 14 15 16 17 18 19 19 20 21 22 22 23 23 23 23 21 22 26 30 32 32 32 33
14 13 13 12 9 7 6 4 2 1 2 5 7 7 6 7 6 6 6 6 7 8 8 9 9 9 8 7 8 9 10 10 9 9 9 10 11 12 13 13 14 15 16 17 17 18 19 19 20 21 22 24 24 24 25 23 24 28 31 32 33 33 33
16 16 14 12 9 7 6 4 3 1 3 7 8 7 7 7 7 7 7 7 8 8 8 8 9 9 8 7 8 9 9 8 7 8 9 10 11 12 12 13 14 15 16 17 17 18 18 19 20 22 23 23 24 25 26 25 26 30 32 32 33 34 34
18 17 14 11 9 7 6 6 4 3 5 8 9 8 8 8 8 8 8 8 8 8 8 8 8 8 8 7 7 7 7 6 6 8 9 9 11 11 12 12 14 15 16 16 17 17 18 20 20 22 23 23 24 24 25 27 28 30 33 33 33 35 35
18 16 14 11 9 8 7 7 5 4 6 9 9 9 9 9 9 9 9 9 9 8 8 7 8 8 7 6 6 6 6 5 6 7 8 9 10 11 11 13 14 15 16 16 17 18 19 20 20 21 23 24 25 25 26 27 28 30 32 34 34 35 36
18 16 13 11 10 10 9 8 6 6 9 10 10 10 10 10 10 10 10 9 8 8 8 7 7 7 7 6 5 5 5 5 6 6 7 8 9 11 12 13 14 15 16 16 17 18 19 19 20 22 24 25 25 26 26 27 28 30 31 33 34 35 37
18 16 13 11 11 11 10 8 7 8 11 11 11 11 11 11 11 11 10 9 8 8 8 7 7 7 6 6 5 4 4 4 5 5 6 8 9 11 13 14 15 15 16 17 18 19 19 20 21 23 24 25 26 26 27 28 29 29 31 32 34 36 38
17 15 13 12 12 11 10 8 8 11 13 12 11 11 11 12 12 12 11 10 9 8 8 7 7 6 6 5 5 4 4 4 4 5 6 8 10 12 13 14 15 15 16 17 18 19 19 20 22 23 25 25 26 27 27 28 29 30 30 32 35 37 39
16 15 14 13 12 12 10 9 11 14 14 13 12 11 12 13 13 13 12 11 10 9 8 7 7 7 6 5 5 4 4 4 4 5 7 9 10 11 13 14 14 15 17 18 18 19 19 20 22 23 25 25 26 27 28 29 30 30 32 33 34 36 38
16 15 14 13 13 12 11 12 14 16 15 13 12 12 12 13 13 13 13 12 11 9 8 7 7 7 7 6 6 5 4 4 5 6 7 9 10 11 12 13 14 15 17 18 18 18 19 21 21 23 24 25 26 28 28 29 30 31 32 32 32 34 36
17 16 15 14 14 13 13 15 17 17 15 14 14 14 14 14 13 14 13 12 11 10 9 8 7 7 7 7 6 6 5 5 5 6 7 8 9 10 11 12 13 14 16 17 17 18 19 20 21 23 24 25 26 27 28 29 30 30 31 31 30 32 35
18 17 16 15 15 15 16 18 19 17 16 15 15 16 16 14 14 14 13 13 12 10 9 9 8 8 7 7 7 6 6 6 6 6 7 7 8 9 10 11 12 14 15 16 16 17 17 18 20 22 23 25 26 27 28 28 29 30 30 30 30 31 33
19 18 17 16 16 18 19 20 19 18 17 16 16 17 16 15 15 15 14 13 12 11 10 9 9 8 8 8 7 7 6 6 6 6 7 7 7 8 9 10 11 12 13 14 15 16 17 18 19 20 21 23 24 26 27 28 28 29 29 30 30 30 31
20 19 18 18 19 21 22 21 20 19 18 17 17 17 17 16 16 16 15 14 13 12 11 10 10 9 8 8 8 7 7 6 6 6 6 6 6 7 8 8 10 11 12 13 14 15 16 17 19 20 21 22 23 24 25 26 27 28 28 28 29 29 30
21 20 19 19 21 22 23 22 20 19 18 18 18 18 18 18 17 17 16 15 14 13 12 11 10 9 9 8 9 8 7 6 6 5 5 5 5 6 6 7 9 10 11 12 12 13 15 16 17 19 21 22 22 23 23 24 24 25 26 26 27 27 28
22 21 20 21 22 24 23 22 21 19 18 18 19 19 19 19 18 18 17 16 15 14 13 12 11 10 10 9 9 9 8 7 6 5 4 4 4 4 5 6 7 9 9 10 11 12 13 15 16 18 20 22 23 23 24 24 24 24 25 25 25 26 27
24 23 21 22 24 25 24 22 21 20 19 19 19 20 19 19 19 18 17 16 16 15 13 13 12 11 10 10 10 9 8 7 6 5 4 3 3 3 4 5 6 7 9 9 10 12 13 14 16 17 20 21 23 24 24 25 25 25 25 25 24 25 26
25 24 22 23 25 25 24 23 21 20 20 20 20 20 20 19 19 18 18 17 16 15 14 13 12 12 11 11 11 10 9 8 7 5 4 3 3 2 2 4 5 7 8 9 10 11 12 14 15 17 19 20 22 24 24 24 24 24 24 24 23 23 25
22 21 21 23 26 26 24 23 21 20 21 21 22 22 21 20 20 19 18 18 17 16 15 14 13 12 12 12 11 11 10 9 8 6 5 3 2 2 1 3 5 6 8 8 9 10 11 13 15 16 18 20 21 23 24 24 24 23 23 23 23 23 23
19 20 21 23 25 25 24 23 21 20 21 22 22 22 21 21 20 19 18 18 17 17 16 15 14 14 13 13 12 11 11 10 9 7 5 4 3 1 1 2 4 6 7 8 9 10 11 12 14 16 18 20 21 23 24 25 25 24 24 24 24 24 25
19 20 21 22 24 24 23 22 20 19 20 21 21 21 21 22 21 20 20 18 18 18 16 15 15 14 14 13 12 12 11 10 9 8 6 5 3 2 1 2 4 5 6 7 8 10 11 12 14 16 17 19 21 23 25 25 26 26 26 26 27 27 28
19 20 20 22 24 23 22 21 20 20 20 21 21 21 22 23 22 22 21 21 20 19 18 16 16 15 14 14 13 12 12 11 10 8 7 5 4 2 1 2 3 4 6 7 8 10 11 12 14 15 17 19 20 22 24 25 26 26 26 27 29 30 32
20 20 21 22 23 24 24 22 21 20 21 21 22 22 23 23 23 22 22 22 21 20 19 17 16 16 15 14 13 12 12 11 10 9 7 6 4 3 1 1 2 3 5 6 8 9 10 12 13 14 15 17 19 21 23 24 25 26 27 28 30 32 33
21 23 25 26 25 26 26 24 22 21 21 21 22 23 23 24 24 23 23 22 22 21 20 19 17 16 15 14 13 13 12 11 10 9 8 7 5 3 1 0 1 3 4 6 7 8 9 11 12 13 14 15 17 19 21 23 24 26 27 28 30 32 33
23 25 27 27 26 26 26 24 23 22 21 22 23 23 24 25 25 24 24 23 23 22 21 20 19 18 16 15 14 13 12 11 10 10 9 7 5 3 2 0 1 2 3 5 6 7 8 10 11 12 13 13 15 17 19 21 23 25 27 28 29 31 33
25 25 26 26 26 26 26 25 24 23 22 22 22 24 25 26 26 26 25 24 24 23 22 20 19 18 17 16 15 13 13 12 11 10 9 7 5 4 2 2 1 2 3 4 5 6 7 9 10 12 13 13 14 16 18 20 22 24 26 28 29 30 32
Wind_Direction
221 226 213 208 209 208 205 215 269 289 298 308 313 311 295 271 142 93 85 75 62 51 45 41 41 40 45 46 45 49 48 52 53 44 46 50 48 50 51 51 51 54 55 58 65 63 64 60 33 31 31 25 22 21 19 18 17 15 16 17 16 14 11
215 220 213 211 208 206 210 233 271 287 300 311 313 301 262 211 117 98 86 74 62 52 48 47 50 51 53 54 55 59 56 54 53 46 45 47 48 49 49 49 49 51 51 51 53 50 50 51 33 26 25 23 22 19 17 18 19 18 18 17 16 14 10
219 214 208 212 208 207 222 250 284 303 310 314 307 270 206 157 113 97 83 73 62 55 55 55 58 59 63 66 67 69 64 58 55 49 48 49 51 52 51 51 49 47 46 44 43 41 40 40 33 25 22 23 23 20 16 15 16 17 17 15 14 13 10
223 215 209 214 211 213 232 264 303 311 313 311 286 214 172 132 107 92 80 73 63 60 62 63 68 73 78 80 77 73 67 60 57 51 51 54 52 52 50 47 45 43 42 40 38 36 33 32 30 25 22 22 24 24 20 17 18 18 16 12 9 10 9
214 215 217 221 219 224 242 282 307 308 310 300 230 178 148 121 99 88 78 71 65 65 68 72 82 87 84 83 77 72 66 60 58 53 52 53 50 48 46 44 43 41 40 39 36 33 31 29 28 26 22 21 22 23 22 21 19 18 16 11 6 5 5
206 214 218 222 225 232 258 287 304 309 308 270 179 157 139 117 98 92 79 72 71 72 78 83 88 89 83 79 73 67 64 60 58 55 52 52 48 46 44 42 40 38 37 38 34 30 29 28 27 24 22 21 21 20 21 24 21 17 15 11 5 3 3
199 209 214 219 223 236 265 285 307 318 310 191 155 152 139 119 104 97 83 80 81 80 85 88 88 87 80 74 70 64 61 59 57 54 52 51 48 45 43 40 37 36 36 34 31 29 29 28 26 24 20 18 19 17 16 20 19 15 15 13 7 3 1
198 207 211 216 222 243 274 293 316 325 320 149 153 154 141 125 110 102 93 89 87 86 90 91 88 85 78 71 67 61 58 59 55 52 52 50 47 44 41 39 36 35 34 31 29 29 28 27 25 24 21 18 17 14 12 16 15 10 9 10 9 4 359
199 209 214 222 231 254 282 295 309 324 8 150 158 155 142 130 116 108 102 94 92 92 94 93 87 82 75 68 65 60 59 59 53 51 52 48 45 43 39 38 35 34 33 31 30 29 28 27 25 24 23 22 19 13 9 11 11 9 7 5 5 3 360
202 212 218 227 239 257 273 271 286 331 137 160 158 153 144 133 122 113 105 99 101 100 97 93 86 81 76 69 66 62 60 59 53 50 50 46 44 42 39 37 35 34 34 33 32 31 28 26 25 24 24 24 22 17 7 1 2 6 6 5 2 359 358
207 214 216 227 243 254 258 252 270 345 154 159 155 154 147 135 125 116 112 111 110 105 99 92 87 84 78 70 67 64 62 60 51 48 48 46 45 42 39 37 36 36 37 35 33 31 28 26 26 26 24 23 22 19 10 357 356 1 2 3 3 358 356
211 215 217 230 245 250 250 249 271 338 153 159 160 160 149 135 126 123 125 123 114 107 102 96 91 86 79 73 70 66 64 59 49 47 49 48 46 44 41 39 38 39 38 36 34 31 29 28 27 26 25 23 20 16 12 1 353 359 1 359 0 359 356
213 213 219 233 244 242 241 244 263 302 165 168 167 162 147 135 133 136 135 127 117 111 106 102 93 86 81 77 74 68 65 59 49 50 52 50 49 47 43 41 40 41 39 36 34 32 32 30 27 27 25 22 18 12 11 4 352 357 4 0 358 359 356
211 213 221 234 239 237 237 239 253 249 181 174 169 160 148 144 145 145 140 131 123 116 110 105 96 89 83 78 76 71 67 63 55 55 55 52 52 49 46 43 41 42 40 37 35 34 33 30 27 26 23 21 19 12 8 5 357 355 1 1 358 358 358
210 216 225 233 233 232 234 235 239 221 183 175 169 161 156 154 151 148 145 137 130 123 117 109 99 93 84 79 79 76 74 72 63 58 56 53 52 50 47 44 43 42 40 38 36 34 32 30 27 24 22 21 19 14 8 5 1 356 357 360 359 358 358
213 222 227 229 228 227 229 229 225 200 179 176 172 167 161 157 155 152 148 143 136 129 123 114 104 96 89 84 85 85 86 80 67 61 58 55 54 51 48 46 44 42 41 39 38 35 31 28 25 23 22 21 18 15 10 6 3 358 356 358 359 358 358
219 224 223 223 224 225 226 224 213 188 176 177 178 172 164 159 159 157 151 148 144 135 128 119 109 103 99 98 99 98 93 79 68 67 63 60 57 53 50 47 44 43 41 40 38 36 31 26 24 23 21 20 17 14 11 7 4 0 358 357 358 358 359
220 219 218 221 223 224 223 219 205 183 177 179 179 175 168 163 161 158 154 153 149 140 134 124 115 113 112 115 119 111 96 78 70 72 69 65 60 55 51 47 45 43 40 39 37 34 30 24 22 23 21 19 17 13 10 8 5 3 1 358 357 359 1
215 213 216 221 223 223 220 213 196 181 178 180 179 175 170 166 163 160 158 158 155 148 142 133 127 126 125 129 131 116 97 81 73 75 74 69 62 56 52 47 45 43 40 38 35 31 29 25 21 21 20 18 15 13 11 8 5 3 2 1 0 1 1
214 214 217 220 222 221 215 204 187 180 180 180 178 176 171 169 166 164 163 163 160 155 148 144 140 137 138 140 134 119 105 91 81 79 75 69 62 56 52 48 44 43 40 37 32 28 26 24 22 19 18 17 14 12 11 7 5 4 3 4 3 0 360
214 214 216 218 220 218 210 195 182 181 184 179 176 176 174 173 170 168 168 167 164 160 156 155 151 146 148 146 138 130 117 101 91 86 78 69 61 55 52 48 44 42 40 36 31 26 24 22 20 18 16 15 13 12 10 7 5 4 5 5 4 360 358
213 213 215 217 218 214 203 190 181 182 184 180 179 178 175 176 176 173 172 169 167 166 163 164 160 154 151 146 143 140 126 111 101 91 80 69 61 56 51 48 45 42 39 36 32 27 24 22 19 16 14 13 12 11 9 7 5 5 5 6 3 359 358
212 213 215 216 216 209 196 185 182 184 183 182 183 180 176 177 179 178 176 172 171 171 171 171 168 161 154 150 148 144 131 116 105 96 85 71 61 56 51 46 44 42 38 36 33 29 26 24 22 18 13 10 9 9 8 7 6 6 5 6 3 360 358
213 214 215 215 212 203 191 184 184 185 184 185 185 181 179 180 180 180 178 175 175 176 177 175 172 168 160 154 154 149 138 125 110 101 89 75 62 55 51 46 43 42 37 34 33 30 28 26 24 21 16 13 9 6 6 6 6 7 6 5 4 2 358
215 215 214 213 207 197 187 184 186 186 187 188 186 183 182 183 183 180 176 177 180 181 183 180 175 173 166 161 162 157 148 137 121 108 95 82 68 56 50 45 44 42 36 32 29 28 28 27 24 21 19 18 14 10 7 5 5 6 7 5 4 3 -0
218 216 212 210 203 193 186 185 188 188 188 188 187 186 186 185 185 182 177 178 182 183 185 184 179 175 172 169 169 164 159 149 135 121 105 90 73 62 55 48 45 42 35 31 26 25 27 26 23 21 19 18 16 14 11 9 8 6 6 5 4 3 1
218 215 211 206 198 190 186 187 188 189 188 187 187 188 188 187 186 184 181 181 183 185 187 186 182 179 178 177 174 170 166 158 148 136 121 103 82 71 62 53 50 44 36 30 25 22 23 24 22 20 18 16 15 13 12 11 11 8 7 7 5 3 2
218 214 208 203 196 190 188 189 190 189 188 188 188 189 190 189 186 184 183 183 184 187 188 187 185 183 183 182 177 173 170 166 161 151 137 123 98 81 67 56 54 46 36 28 21 20 19 21 22 19 17 16 13 12 12 11 11 9 7 8 7 4 3
213 208 204 200 195 190 190 191 190 190 189 188 190 190 190 190 188 186 185 185 186 188 189 188 187 187 186 184 179 176 174 173 171 165 157 146 117 96 69 53 50 43 36 26 17 17 16 17 19 18 16 15 12 11 11 10 10 9 7 8 8 6 5
212 210 207 202 195 191 191 191 191 192 192 191 191 189 189 189 189 188 188 188 188 189 190 189 188 188 187 183 178 177 176 176 178 176 173 167 140 114 74 52 45 36 31 24 16 16 16 16 17 16 14 14 12 10 9 8 7 7 8 10 11 10 8
221 219 215 207 198 193 192 193 193 193 194 194 192 189 188 189 189 188 189 191 191 190 190 190 189 188 186 181 176 176 178 178 180 181 181 179 166 147 103 48 41 32 25 19 16 16 15 15 16 14 12 12 10 7 5 4 4 5 6 9 12 14 12
222 223 217 210 202 197 194 195 196 194 193 194 192 190 190 189 189 187 187 191 192 191 190 191 191 190 186 181 176 177 179 179 180 182 182 181 178 173 152 45 37 28 18 14 15 15 15 16 14 11 10 10 7 4 1 360 360 0 2 6 9 13 14
221 220 214 208 204 200 199 200 200 196 194 192 193 194 192 190 190 188 188 191 193 192 191 191 193 193 188 182 179 180 181 180 179 180 180 181 184 186 159 48 31 19 12 11 13 13 14 14 11 9 8 7 4 1 360 359 359 359 1 4 8 11 14
215 212 206 203 201 200 200 200 201 200 197 194 193 195 194 191 190 191 192 193 193 192 191 191 194 195 190 185 184 184 182 182 181 178 178 181 184 185 169 45 19 7 5 6 8 11 12 11 9 8 6 4 2 0 359 0 1 1 3 5 8 10 12
212 211 205 201 200 199 196 196 199 202 202 198 195 196 195 193 191 193 194 194 194 194 192 191 194 196 192 188 188 187 184 185 184 180 178 180 184 183 172 49 355 352 357 358 1 5 7 8 9 7 5 4 3 2 1 1 3 4 5 6 8 9 10
212 212 207 204 203 198 195 196 200 204 206 203 198 197 197 195 193 193 195 195 195 195 194 193 194 194 193 191 189 187 187 188 188 183 180 179 181 178 168 221 305 334 349 352 355 359 2 6 8 7 6 6 6 5 4 4 5 7 7 8 9 10 10
213 210 207 208 204 197 196 199 201 205 210 209 204 200 199 197 195 195 196 197 197 196 195 195 196 194 193 192 189 188 190 191 191 188 183 179 177 176 187 224 270 323 340 345 351 355 357 360 2 5 6 7 8 7 6 6 6 8 9 8 9 10 10
Height
1553 1553 1553 1554 1556 1557 1557 1557 1557 1558 1559 1559 1560 1559 1560 1560 1560 1560 1560 1560 1561 1561 1561 1561 1562 1562 1562 1562 1562 1562 1562 1562 1562 1562 1561 1561 1560 1560 1560 1560 1560 1560 1560 1561 1561 1561 1561 1560 1559 1557 1556 1555 1553 1552 1551 1549 1548 1547 1545 1543 1542 1540 1538
1553 1553 1553 1554 1556 1556 1556 1557 1557 1558 1558 1558 1558 1559 1559 1559 1559 1560 1560 1560 1561 1561 1561 1562 1562 1562 1562 1562 1562 1562 1562 1562 1562 1562 1561 1560 1560 1560 1560 1560 1560 1560 1561 1561 1560 1560 1559 1559 1558 1557 1555 1554 1552 1551 1550 1549 1548 1547 1545 1544 1542 1540 1538
1553 1552 1553 1554 1555 1556 1556 1556 1557 1557 1557 1557 1558 1558 1558 1559 1559 1559 1560 1560 1561 1561 1561 1561 1561 1561 1562 1562 1563 1563 1563 1563 1562 1562 1561 1561 1560 1560 1560 1561 1560 1560 1560 1560 1559 1559 1558 1558 1558 1557 1556 1555 1553 1552 1551 1549 1548 1546 1544 1543 1542 1540 1538
1553 1552 1552 1553 1554 1555 1556 1556 1556 1556 1556 1556 1557 1557 1558 1558 1559 1559 1560 1560 1561 1561 1561 1561 1561 1562 1562 1563 1563 1563 1563 1563 1562 1562 1562 1562 1562 1562 1561 1561 1561 1560 1560 1559 1559 1558 1558 1558 1558 1557 1557 1556 1555 1553 1552 1550 1548 1547 1545 1543 1541 1539 1538
1551 1552 1552 1552 1554 1555 1555 1555 1556 1556 1555 1556 1556 1556 1557 1557 1558 1559 1560 1560 1561 1561 1561 1561 1562 1562 1563 1563 1563 1563 1563 1563 1563 1563 1562 1562 1562 1562 1561 1561 1560 1560 1560 1559 1559 1559 1559 1558 1558 1558 1557 1555 1554 1553 1552 1550 1549 1548 1546 1544 1542 1539 1537
1549 1551 1551 1552 1553 1554 1554 1555 1555 1555 1554 1555 1555 1555 1556 1557 1558 1559 1560 1560 1560 1561 1561 1562 1562 1563 1563 1563 1563 1563 1563 1563 1563 1563 1563 1563 1562 1562 1561 1561 1560 1560 1560 1559 1560 1559 1559 1559 1558 1557 1556 1555 1554 1553 1552 1551 1549 1548 1546 1544 1542 1539 1537
1548 1549 1551 1552 1552 1553 1554 1554 1554 1554 1553 1554 1554 1555 1556 1557 1558 1559 1559 1560 1560 1560 1561 1562 1562 1562 1563 1563 1563 1563 1563 1563 1564 1564 1564 1563 1563 1562 1561 1561 1560 1560 1560 1560 1560 1560 1559 1558 1557 1556 1555 1554 1554 1553 1552 1551 1549 1548 1546 1544 1541 1539 1536
1547 1548 1550 1551 1551 1552 1552 1553 1553 1553 1553 1553 1553 1554 1556 1557 1558 1559 1559 1560 1560 1560 1561 1562 1562 1562 1563 1563 1563 1563 1564 1564 1564 1564 1564 1563 1563 1562 1562 1561 1561 1561 1561 1560 1560 1559 1559 1558 1557 1556 1555 1554 1553 1552 1551 1550 1549 1547 1545 1544 1542 1539 1536
1546 1547 1548 1549 1550 1551 1551 1552 1552 1552 1552 1552 1553 1554 1556 1557 1558 1558 1559 1559 1560 1561 1561 1562 1562 1562 1563 1563 1563 1564 1564 1564 1564 1564 1564 1563 1563 1562 1562 1562 1562 1562 1561 1561 1560 1559 1558 1558 1557 1556 1555 1555 1554 1553 1551 1549 1549 1547 1545 1542 1541 1539 1536
1545 1546 1547 1548 1549 1550 1551 1551 1551 1551 1552 1552 1553 1554 1555 1556 1557 1558 1558 1559 1560 1561 1561 1561 1562 1562 1563 1563 1564 1564 1564 1564 1564 1564 1563 1563 1563 1563 1563 1563 1563 1562 1562 1561 1560 1559 1559 1558 1557 1556 1556 1555 1554 1554 1552 1550 1548 1547 1545 1542 1539 1537 1535
1545 1546 1546 1547 1548 1549 1550 1550 1550 1551 1551 1552 1553 1553 1555 1556 1556 1557 1558 1559 1560 1560 1561 1561 1562 1562 1563 1564 1564 1564 1564 1564 1564 1564 1564 1564 1564 1564 1564 1563 1563 1562 1562 1561 1561 1560 1559 1558 1557 1557 1556 1555 1554 1553 1553 1551 1548 1546 1544 1542 1540 1536 1533
1544 1545 1546 1546 1547 1548 1549 1549 1549 1550 1550 1551 1552 1553 1554 1555 1556 1557 1558 1559 1560 1560 1561 1562 1562 1563 1563 1564 1564 1564 1564 1564 1564 1564 1564 1564 1564 1564 1564 1564 1563 1563 1562 1562 1561 1560 1559 1559 1558 1557 1556 1555 1554 1553 1552 1550 1548 1546 1543 1540 1538 1535 1532
1543 1544 1545 1546 1546 1547 1548 1548 1548 1549 1550 1551 1552 1553 1554 1555 1556 1557 1558 1559 1560 1560 1561 1562 1562 1563 1563 1563 1564 1564 1564 1564 1564 1564 1565 1564 1564 1564 1564 1564 1564 1563 1563 1562 1562 1561 1560 1559 1558 1557 1556 1554 1553 1552 1550 1549 1547 1545 1543 1540 1536 1534 1531
1541 1543 1544 1544 1545 1546 1546 1547 1547 1548 1549 1550 1551 1552 1553 1554 1555 1556 1557 1559 1560 1560 1561 1562 1562 1563 1563 1563 1563 1564 1564 1565 1565 1565 1565 1565 1564 1564 1565 1565 1564 1564 1563 1563 1562 1561 1561 1559 1558 1557 1556 1554 1553 1551 1549 1547 1545 1542 1541 1539 1536 1532 1529
1540 1541 1542 1543 1544 1544 1545 1546 1547 1547 1548 1549 1550 1551 1553 1554 1555 1556 1557 1558 1559 1560 1561 1561 1562 1562 1563 1563 1564 1564 1564 1565 1565 1565 1565 1565 1565 1565 1565 1565 1565 1564 1563 1563 1562 1562 1561 1559 1558 1557 1556 1554 1552 1551 1548 1546 1544 1541 1539 1537 1534 1531 1528
1538 1539 1541 1541 1542 1543 1544 1545 1546 1546 1547 1548 1550 1551 1552 1553 1555 1556 1557 1558 1559 1560 1561 1561 1562 1562 1563 1563 1564 1564 1565 1565 1565 1565 1565 1565 1565 1566 1566 1565 1565 1564 1564 1563 1563 1562 1561 1559 1558 1557 1556 1554 1552 1550 1548 1546 1543 1541 1538 1535 1532 1529 1526
1537 1537 1539 1540 1540 1541 1542 1544 1545 1545 1546 1547 1549 1550 1551 1553 1554 1555 1556 1558 1559 1560 1560 1561 1561 1562 1563 1563 1564 1564 1565 1565 1565 1565 1566 1566 1566 1566 1566 1565 1565 1564 1564 1564 1563 1562 1561 1559 1558 1557 1555 1553 1551 1550 1548 1546 1543 1541 1537 1534 1532 1529 1525
1534 1535 1537 1538 1539 1540 1541 1542 1543 1544 1545 1547 1548 1549 1550 1552 1553 1555 1556 1557 1558 1559 1560 1561 1561 1562 1563 1563 1564 1564 1565 1565 1565 1565 1566 1566 1566 1566 1566 1565 1565 1564 1564 1564 1563 1562 1561 1559 1558 1556 1554 1553 1551 1549 1547 1545 1543 1540 1538 1534 1531 1527 1524
1532 1533 1535 1536 1537 1538 1539 1541 1542 1543 1544 1546 1547 1548 1550 1551 1553 1554 1555 1557 1558 1559 1559 1560 1561 1562 1563 1563 1564 1564 1564 1565 1565 1565 1566 1566 1566 1566 1565 1565 1565 1565 1564 1563 1562 1561 1560 1559 1557 1555 1554 1552 1551 1549 1547 1545 1542 1540 1537 1534 1530 1526 1523
1530 1531 1533 1534 1535 1536 1538 1539 1540 1542 1544 1545 1546 1547 1549 1550 1552 1553 1555 1556 1557 1558 1559 1560 1561 1562 1562 1563 1563 1564 1564 1565 1565 1565 1565 1566 1565 1565 1565 1565 1565 1565 1564 1563 1562 1561 1560 1558 1556 1555 1553 1552 1550 1548 1546 1544 1541 1539 1536 1533 1529 1525 1522
1528 1530 1531 1532 1534 1535 1536 1538 1539 1541 1543 1544 1545 1547 1548 1550 1551 1552 1554 1555 1556 1557 1558 1559 1560 1561 1562 1563 1563 1564 1564 1564 1565 1565 1565 1565 1565 1565 1565 1565 1565 1564 1564 1563 1562 1561 1559 1558 1556 1554 1553 1551 1550 1547 1545 1543 1540 1538 1535 1532 1529 1526 1522
1526 1527 1529 1530 1532 1533 1535 1537 1538 1540 1541 1542 1544 1546 1547 1549 1550 1552 1553 1554 1555 1556 1557 1559 1560 1561 1562 1562 1563 1563 1564 1564 1564 1565 1565 1565 1565 1565 1565 1565 1565 1564 1564 1563 1562 1560 1559 1557 1556 1554 1552 1551 1549 1547 1545 1543 1540 1537 1534 1531 1529 1526 1522
1524 1525 1527 1528 1530 1531 1533 1535 1537 1538 1540 1541 1543 1545 1546 1548 1549 1551 1552 1553 1554 1555 1557 1558 1559 1560 1561 1562 1562 1563 1563 1564 1564 1564 1565 1565 1565 1565 1565 1565 1565 1565 1564 1563 1562 1561 1559 1558 1556 1554 1552 1550 1548 1546 1544 1542 1540 1537 1534 1531 1529 1525 1522
1521 1523 1525 1527 1528 1530 1532 1533 1535 1537 1538 1540 1542 1543 1545 1547 1548 1550 1551 1552 1553 1555 1556 1557 1558 1559 1560 1561 1562 1562 1563 1563 1563 1564 1564 1564 1564 1564 1565 1565 1565 1564 1564 1563 1562 1561 1560 1558 1556 1555 1553 1551 1548 1546 1544 1542 1540 1537 1534 1531 1529 1526 1523
1519 1521 1523 1525 1527 1528 1530 1532 1534 1536 1537 1539 1541 1542 1544 1546 1547 1549 1550 1551 1553 1554 1555 1557 1557 1558 1559 1560 1561 1562 1562 1562 1563 1563 1564 1564 1564 1564 1565 1565 1565 1564 1563 1562 1562 1561 1559 1558 1557 1555 1554 1552 1550 1547 1545 1542 1539 1537 1534 1532 1529 1527 1524
1517 1519 1521 1523 1525 1527 1529 1531 1533 1535 1536 1538 1540 1541 1543 1544 1546 1547 1549 1550 1552 1553 1554 1556 1556 1557 1558 1559 1560 1561 1561 1562 1562 1563 1563 1563 1564 1564 1564 1565 1564 1564 1563 1562 1561 1560 1559 1558 1557 1555 1554 1552 1551 1549 1547 1544 1541 1538 1535 1533 1530 1527 1524
1515 1518 1519 1521 1523 1525 1527 1530 1532 1533 1535 1536 1538 1540 1542 1543 1545 1546 1548 1549 1551 1552 1553 1554 1555 1556 1557 1558 1559 1560 1561 1561 1562 1562 1562 1563 1563 1564 1564 1564 1564 1563 1563 1562 1561 1560 1559 1558 1556 1555 1554 1552 1551 1549 1547 1545 1543 1540 1537 1534 1531 1528 1525
1513 1515 1517 1520 1522 1524 1526 1528 1530 1532 1534 1535 1537 1539 1541 1542 1544 1545 1547 1548 1549 1551 1552 1553 1554 1555 1556 1558 1558 1559 1560 1560 1561 1561 1562 1562 1563 1563 1564 1564 1563 1563 1562 1561 1561 1560 1558 1557 1556 1555 1554 1552 1551 1549 1547 1545 1542 1540 1537 1534 1531 1528 1525
1512 1514 1516 1518 1520 1522 1525 1527 1529 1531 1532 1534 1536 1538 1539 1541 1543 1544 1546 1547 1548 1550 1551 1552 1553 1554 1555 1557 1557 1558 1559 1560 1560 1561 1561 1561 1562 1563 1563 1563 1563 1562 1562 1561 1560 1559 1558 1557 1556 1555 1554 1552 1551 1549 1547 1545 1543 1541 1538 1535 1532 1529 1526
1515 1517 1517 1517 1518 1520 1522 1525 1527 1529 1531 1533 1534 1536 1538 1539 1541 1543 1545 1546 1547 1548 1549 1551 1552 1553 1554 1555 1556 1557 1558 1559 1559 1560 1560 1561 1561 1562 1562 1562 1562 1561 1561 1561 1560 1559 1558 1557 1556 1555 1554 1552 1551 1549 1547 1545 1544 1542 1539 1537 1534 1531 1527
1517 1518 1517 1516 1517 1519 1521 1524 1526 1528 1530 1531 1533 1535 1536 1538 1540 1542 1543 1545 1546 1547 1548 1549 1551 1552 1553 1554 1555 1556 1557 1558 1558 1559 1560 1560 1560 1561 1561 1561 1561 1560 1560 1560 1560 1559 1557 1556 1556 1555 1553 1552 1551 1549 1547 1545 1543 1541 1539 1537 1534 1531 1527
1513 1516 1516 1516 1518 1520 1522 1524 1526 1527 1529 1531 1532 1534 1535 1537 1538 1540 1542 1543 1545 1546 1547 1548 1549 1551 1552 1553 1554 1555 1556 1556 1557 1558 1559 1559 1560 1560 1560 1560 1560 1559 1559 1559 1559 1558 1557 1556 1555 1554 1553 1552 1550 1549 1547 1545 1542 1540 1538 1535 1532 1529 1526
1511 1513 1515 1516 1518 1520 1522 1524 1526 1527 1528 1529 1531 1532 1534 1535 1537 1538 1540 1541 1543 1545 1546 1547 1548 1550 1551 1552 1552 1554 1554 1555 1556 1557 1557 1558 1559 1559 1559 1559 1558 1558 1558 1558 1558 1557 1556 1555 1554 1553 1552 1551 1550 1548 1546 1544 1542 1540 1537 1534 1530 1527 1524
1508 1510 1512 1514 1515 1518 1520 1523 1525 1526 1527 1528 1529 1531 1532 1534 1535 1537 1538 1540 1541 1543 1544 1546 1547 1548 1549 1550 1551 1552 1553 1554 1555 1555 1556 1557 1558 1558 1558 1557 1557 1557 1557 1557 1557 1556 1555 1554 1554 1553 1551 1550 1549 1548 1546 1543 1541 1539 1536 1533 1530 1526 1523
1505 1507 1509 1510 1512 1514 1518 1521 1523 1525 1526 1527 1528 1529 1531 1532 1534 1535 1537 1538 1540 1541 1543 1544 1546 1547 1548 1549 1550 1551 1552 1553 1554 1554 1555 1556 1556 1557 1557 1556 1556 1556 1556 1556 1556 1555 1555 1554 1553 1552 1551 1550 1548 1547 1545 1543 1541 1538 1536 1533 1529 1526 1522
1503 1505 1507 1509 1511 1513 1516 1518 1520 1523 1525 1526 1527 1528 1529 1531 1532 1533 1535 1536 1538 1540 1541 1542 1544 1545 1547 1548 1549 1550 1551 1552 1552 1553 1554 1554 1555 1555 1555 1555 1555 1555 1555 1555 1555 1555 1554 1553 1552 1552 1550 1549 1547 1546 1544 1542 1540 1538 1536 1533 1529 1526 1522
1501 1503 1506 1508 1510 1511 1513 1515 1518 1521 1524 1525 1526 1527 1528 1529 1531 1532 1533 1534 1536 1538 1539 1541 1542 1544 1545 1546 1548 1548 1549 1550 1551 1552 1552 1553 1553 1554 1554 1554 1555 1554 1554 1554 1554 1554 1553 1553 1552 1551 1550 1548 1547 1545 1543 1542 1540 1537 1535 1532 1529 1526 1522